Flag for U.S.A. Weather past 2 weeks in San Angelo, Texas, U.S.A.

Now
86 °F

Scattered clouds.


Feels Like: 88 °F
Forecast: 71 / 90 °F
Wind: 15 mph from South

Location: Mathis Field

Current Time: Jul 1, 2015 at 2:44:09 PM

Latest Report: Jul 1, 2015 at 1:51 PM


Visibility: 10 mi

Pressure: 29.97 "Hg

Humidity: 51%

Dew point: 66 °F

Location of San AngeloLocation

Historic Weather in San Angelo — Graph

°F

San Angelo temperature yesterday

Maximum temperature yesterday: 90 °F (at 4:51 PM)
Minimum temperature yesterday: 69 °F (at 6:51 AM)
Average temperature yesterday: 79 °F

Past Weeks' High & Low Weather Summary

 TemperatureHumidityPressure
High95 °F (Jun 26, 5:51 PM)94% (Jun 16, 6:51 PM)30.15 "Hg (Jun 16, 6:51 PM)
Low67 °F (Jun 23, 5:51 AM)34% (Jun 22, 4:51 PM)29.82 "Hg (Jun 17, 6:51 PM)
Average79 °F70%29.98 "Hg
* Reported Jun 16 12:51 PM — Jul 1 12:51 PM, San Angelo, Weather by CustomWeather, © 2015

Note: Actual official high and low records may vary slightly from our data, if they occured in-between our weather recording intervals... More about our weather records

Advertising

San Angelo weather history for previous 24 hours

 ConditionsComfort  
Time TempWeatherWind HumidityBarometerVisibility
12:51 PM
Wed, Jul 1
86 °FPassing clouds.16 mph51%29.97 "Hg10 mi
11:51 AM83 °FPassing clouds.15 mph57%29.99 "Hg10 mi
10:51 AM82 °FPassing clouds.12 mph60%29.99 "Hg10 mi
9:51 AM80 °FPartly sunny.15 mph67%30.00 "Hg10 mi
8:51 AM76 °FPassing clouds.17 mph77%30.00 "Hg10 mi
7:51 AM73 °FMostly cloudy.9 mph84%30.00 "Hg10 mi
6:51 AM71 °FOvercast.9 mph87%30.00 "Hg10 mi
5:51 AM69 °FClear.6 mph90%29.98 "Hg10 mi
4:51 AM70 °FClear.6 mph87%29.97 "Hg10 mi
3:51 AM71 °FClear.7 mph84%29.97 "Hg10 mi
2:51 AM72 °FClear.10 mph81%29.99 "Hg10 mi
1:51 AM72 °FClear.7 mph84%29.98 "Hg10 mi
12:51 AM74 °FClear.8 mph79%29.98 "Hg10 mi
10:51 PM
Tue, Jun 30
77 °FClear.6 mph74%29.97 "Hg10 mi
9:51 PM78 °FClear.10 mph71%29.96 "Hg10 mi
8:51 PM83 °FScattered clouds.10 mph61%29.93 "Hg10 mi
7:51 PM87 °FSunny.3 mph50%29.90 "Hg10 mi
6:51 PM89 °FSunny.7 mph42%29.90 "Hg10 mi
5:51 PM90 °FSunny.8 mph42%29.90 "Hg10 mi
4:51 PM90 °FSunny.8 mph43%29.92 "Hg10 mi
3:51 PM89 °FSunny.6 mph46%29.93 "Hg10 mi
2:51 PM87 °FSunny.3 mph50%29.95 "Hg10 mi
Weather by CustomWeather, © 2015

See weather overviewHow to use our weather pages